{"data":{"norad_id":64334,"intl_designator":"2025-124T","name":"STARLINK-34260","alt_names":[],"object_type":"PAYLOAD","status":"ACTIVE","operator":null,"country":"US","launch_date":"2025-06-10","launch_site_code":"AFETR","launch_vehicle":null,"mission":null,"orbit_class":"UNKNOWN","rcs_meters":null,"size_class":null,"mass_kg":null,"dimensions":null,"purposes":["comms"],"wikipedia_slug":null,"has_3d_model":false,"image_url":null,"decayed_at":null,"tle_current":{"epoch":"2026-05-25T03:56:58.720128Z","epoch_age_seconds":64006,"freshness":"FRESH","line1":"1 64334U 25124T   26145.16456852  .00025437  00000+0  93019-3 0  9994","line2":"2 64334  43.0018  50.0457 0001214 272.3407  87.7306 15.27598116 53477","mean_motion":15.27598116,"eccentricity":0.0001214,"inclination_deg":43.0018,"raan_deg":50.0457,"arg_perigee_deg":272.3407,"mean_anomaly_deg":87.7306,"bstar":0.00093019,"rev_number":5347,"period_min":94.265630791076,"perigee_km":482.16190934787,"apogee_km":483.82779216123,"semimajor_km":6861.1318507545,"source":"CELESTRAK","updated_at":"2026-05-25T13:38:20.398038Z"}}}